FW0532 Weather Reports


Display with metric or nautical units.
time (UTC)temp
F
wind
direction
speed
MPH
gust
MPH
rain 1hr
in
rain 24hr
in
rain mn
in
humidity
%
barometer
mb
20260507034811 42 289 0.0 0.0 0.00 0.42 0.33 92 1012.7
20260507033811 42 289 0.0 0.0 0.00 0.48 0.33 92 1012.7
20260507033310 42 289 0.0 0.0 0.00 0.49 0.33 92 1012.7
20260507032310 42 289 0.0 0.0 0.00 0.49 0.33 91 1012.7
20260507031810 42 289 0.0 0.0 0.00 0.49 0.33 91 1012.6
20260507031310 42 289 0.0 0.0 0.00 0.49 0.33 91 1012.7
20260507030809 43 289 0.0 0.0 0.00 0.49 0.33 90 1012.7
20260507030310 43 289 0.0 0.0 0.00 0.49 0.33 90 1012.8
20260507025809 43 289 0.0 0.0 0.00 0.49 0.33 90 1012.7
20260507025310 43 289 0.0 0.0 0.00 0.49 0.33 90 1012.7
20260507024809 43 289 0.0 0.0 0.00 0.49 0.33 90 1012.8
20260507023809 44 289 0.0 0.0 0.00 0.50 0.33 89 1013.0
20260507023308 44 289 0.0 0.0 0.00 0.51 0.33 89 1012.9
20260507022808 44 289 0.0 0.0 0.00 0.51 0.33 89 1012.9
20260507022308 45 289 0.0 0.0 0.00 0.52 0.33 88 1012.7
20260507021808 45 289 0.0 0.0 0.00 0.53 0.33 87 1012.8
20260507020808 46 290 0.0 0.0 0.00 0.53 0.33 85 1012.8
20260507020308 46 289 0.0 0.0 0.00 0.54 0.33 85 1012.7
20260507015807 46 289 0.0 0.0 0.00 0.55 0.33 84 1012.6
20260507015308 46 289 0.0 0.0 0.00 0.56 0.33 86 1012.6
20260507014807 46 289 0.0 0.0 0.00 0.57 0.33 85 1012.5
20260507014307 45 289 0.0 0.0 0.00 0.58 0.33 84 1012.5
20260507013807 45 289 0.0 0.0 0.00 0.58 0.33 84 1012.3
20260507013307 45 289 0.0 0.0 0.00 0.58 0.33 83 1012.4
20260507012807 45 289 0.0 0.0 0.00 0.58 0.33 84 1012.3
20260507012307 45 289 0.0 0.0 0.00 0.59 0.33 82 1012.3
20260507011807 45 289 0.0 0.0 0.00 0.60 0.33 82 1012.3
20260507011306 46 289 0.0 0.0 0.00 0.61 0.33 81 1012.3
20260507010806 46 289 0.0 0.0 0.00 0.62 0.33 81 1012.3
20260507005806 46 289 0.0 0.0 0.00 0.63 0.33 79 1012.1
20260507005306 46 289 0.0 0.0 0.00 0.64 0.33 80 1012.2
20260507003805 48 289 0.0 0.0 0.00 0.69 0.33 74 1012.0
20260507002805 49 306 0.0 2.0 0.00 0.71 0.33 73 1011.9
20260507002306 51 342 2.0 3.0 0.00 0.72 0.33 68 1012.0
20260507001305 52 342 0.0 3.0 0.00 0.76 0.33 60 1011.9
20260507000804 53 327 1.0 5.0 0.00 0.77 0.33 61 1011.7
20260507000306 54 296 0.0 5.0 0.00 0.79 0.33 56 1011.8
20260506235804 54 360 4.0 5.0 0.00 0.80 0.33 57 1011.8
20260506235306 54 360 2.0 5.0 0.00 0.82 0.33 56 1011.9
20260506234803 54 333 1.0 3.0 0.00 0.84 0.33 60 1011.7
20260506234303 54 319 1.0 4.0 0.00 0.85 0.33 60 1011.7
20260506233833 54 318 3.0 4.0 0.00 0.87 0.33 62 1011.7
20260506233333 54 5 3.0 6.0 0.00 0.88 0.33 59 1011.8
20260506232333 54 333 1.0 6.0 0.00 0.93 0.33 61 1011.8
20260506231833 54 322 3.0 6.0 0.00 1.00 0.33 59 1011.8
20260506231332 54 318 5.0 6.0 0.00 1.08 0.33 59 1011.7
20260506230332 55 304 2.0 6.0 0.00 1.14 0.33 60 1011.9
20260506225332 55 5 5.0 6.0 0.00 1.16 0.33 58 1011.9
20260506224832 55 319 1.0 8.0 0.00 1.16 0.33 55 1011.9
20260506224331 55 338 3.0 8.0 0.00 1.16 0.33 56 1012.0
20260506223832 55 355 2.0 7.0 0.00 1.16 0.33 57 1012.0
20260506223331 55 245 2.0 7.0 0.00 1.16 0.33 54 1012.0
20260506222831 55 321 3.0 6.0 0.00 1.16 0.33 56 1012.1
20260506222331 55 333 1.0 7.0 0.00 1.16 0.33 57 1012.1
20260506221831 56 333 3.0 7.0 0.00 1.16 0.33 54 1012.1
20260506221330 56 355 2.0 4.0 0.00 1.16 0.33 51 1012.2
20260506220330 56 311 4.0 6.0 0.00 1.16 0.33 54 1012.0
20260506215830 56 271 4.0 7.0 0.00 1.16 0.33 52 1011.9
20260506214830 56 22 7.0 7.0 0.00 1.16 0.33 55 1011.7
20260506214330 56 304 1.0 7.0 0.00 1.16 0.33 55 1011.7
20260506213830 56 304 2.0 7.0 0.00 1.16 0.33 56 1011.7
20260506213330 56 317 1.0 7.0 0.00 1.16 0.33 55 1011.8
20260506212829 56 348 3.0 6.0 0.00 1.16 0.33 57 1011.7
20260506212330 56 23 1.0 5.0 0.00 1.16 0.33 54 1011.7
20260506211829 56 340 1.0 6.0 0.00 1.16 0.33 58 1011.6
20260506211329 56 287 2.0 11.0 0.00 1.16 0.33 54 1011.6
20260506210828 56 327 3.0 11.0 0.00 1.16 0.33 54 1011.6
20260506210329 56 10 3.0 9.0 0.00 1.16 0.33 53 1011.6
20260506205828 56 360 2.0 9.0 0.00 1.16 0.33 54 1011.5
20260506205328 56 349 5.0 9.0 0.00 1.16 0.33 55 1011.5
20260506204828 56 360 3.0 8.0 0.00 1.17 0.33 57 1011.5
20260506204328 56 274 4.0 7.0 0.00 1.17 0.33 59 1011.6
20260506203828 55 282 0.0 11.0 0.00 1.17 0.33 59 1011.6
20260506203327 55 17 1.0 11.0 0.00 1.17 0.33 56 1011.6
20260506202328 56 355 3.0 7.0 0.00 1.18 0.33 55 1011.6
20260506201827 56 333 2.0 7.0 0.00 1.18 0.33 55 1011.5
20260506200827 56 308 2.0 7.0 0.00 1.18 0.33 58 1011.5
20260506200326 56 33 3.0 6.0 0.00 1.18 0.33 59 1011.5
20260506195827 55 328 1.0 4.0 0.00 1.19 0.33 60 1011.5
20260506195326 55 266 3.0 4.0 0.00 1.20 0.33 61 1011.4
20260506194827 55 22 1.0 5.0 0.00 1.21 0.33 59 1011.3
20260506194326 55 38 1.0 5.0 0.00 1.24 0.33 62 1011.3
20260506193826 55 329 2.0 7.0 0.00 1.26 0.33 55 1011.3
20260506193326 56 13 2.0 10.0 0.00 1.27 0.33 57 1011.3
20260506192826 57 34 4.0 10.0 0.00 1.27 0.33 55 1011.4
20260506192325 57 327 7.0 10.0 0.00 1.27 0.33 56 1011.5
20260506191825 56 289 2.0 5.0 0.00 1.27 0.33 57 1011.5
20260506191325 55 313 2.0 7.0 0.00 1.27 0.33 56 1011.6
20260506190325 55 301 0.0 5.0 0.00 1.27 0.33 58 1011.5
20260506185825 55 302 3.0 6.0 0.00 1.27 0.33 58 1011.6
20260506185324 55 348 0.0 6.0 0.00 1.27 0.33 59 1011.6
20260506184824 55 319 3.0 5.0 0.00 1.27 0.33 58 1011.5
20260506184324 55 319 5.0 8.0 0.00 1.27 0.33 60 1011.7
20260506183824 55 337 3.0 8.0 0.00 1.27 0.33 57 1011.7
20260506183324 55 341 5.0 9.0 0.00 1.27 0.33 58 1011.6
20260506182824 55 339 5.0 9.0 0.00 1.27 0.33 60 1011.4
20260506182324 56 24 3.0 8.0 0.00 1.27 0.33 56 1011.3
20260506181323 56 360 0.0 6.0 0.00 1.27 0.33 62 1011.2
20260506175823 55 310 5.0 7.0 0.00 1.27 0.33 61 1011.6
20260506175323 55 309 4.0 8.0 0.00 1.27 0.33 58 1011.6
20260506174822 55 338 1.0 10.0 0.00 1.27 0.33 60 1011.6
20260506173822 55 340 0.0 10.0 0.00 1.27 0.33 62 1011.8
20260506173322 55 302 1.0 10.0 0.00 1.27 0.33 63 1011.8
20260506172822 55 355 4.0 5.0 0.00 1.27 0.33 62 1011.9
20260506172322 55 275 0.0 6.0 0.00 1.27 0.33 60 1011.7
20260506171822 56 344 3.0 10.0 0.00 1.27 0.33 61 1011.5
20260506170821 56 15 7.0 10.0 0.00 1.27 0.33 61 1011.5
20260506170321 56 230 7.0 10.0 0.00 1.27 0.33 59 1011.5
20260506165321 56 12 2.0 6.0 0.00 1.27 0.33 59 1011.5
20260506164820 56 315 3.0 7.0 0.00 1.27 0.33 65 1011.6
20260506164321 55 339 1.0 9.0 0.00 1.27 0.33 56 1011.5
20260506163820 56 351 5.0 9.0 0.00 1.27 0.33 63 1011.6
20260506163320 55 335 2.0 13.0 0.00 1.27 0.33 61 1011.6
20260506162820 56 46 4.0 13.0 0.00 1.27 0.33 64 1011.6
20260506162320 56 40 3.0 6.0 0.00 1.27 0.33 63 1011.5
20260506161819 55 227 2.0 7.0 0.00 1.27 0.33 62 1011.4
20260506161320 55 17 6.0 9.0 0.00 1.27 0.33 60 1011.4
20260506160819 55 350 7.0 9.0 0.00 1.27 0.33 64 1011.8
20260506160320 56 335 1.0 9.0 0.00 1.27 0.33 66 1011.7
20260506155819 56 296 1.0 9.0 0.00 1.27 0.33 69 1011.4
20260506155319 56 328 3.0 7.0 0.00 1.27 0.33 66 1011.2
20260506154819 56 306 6.0 7.0 0.00 1.27 0.33 67 1011.3
20260506154318 55 18 2.0 7.0 0.00 1.27 0.33 64 1011.2
20260506153819 54 318 0.0 8.0 0.00 1.27 0.33 62 1011.2
20260506153318 54 249 1.0 9.0 0.00 1.27 0.33 64 1011.2
20260506152819 54 329 5.0 9.0 0.00 1.27 0.33 72 1011.2
20260506152318 54 5 6.0 11.0 0.00 1.27 0.33 71 1011.2
20260506151818 54 336 5.0 11.0 0.00 1.27 0.33 69 1011.2
20260506151318 54 331 4.0 11.0 0.00 1.27 0.33 67 1011.1
20260506150817 54 5 4.0 11.0 0.00 1.27 0.33 72 1010.9
20260506150318 54 296 5.0 9.0 0.00 1.27 0.33 68 1010.8
20260506145817 54 348 0.0 11.0 0.00 1.27 0.33 71 1010.7
20260506144817 53 292 3.0 11.0 0.00 1.27 0.33 71 1010.5
20260506144317 53 355 7.0 10.0 0.00 1.27 0.33 72 1010.4
20260506143817 53 338 5.0 10.0 0.00 1.27 0.33 71 1010.5
20260506143316 52 5 8.0 9.0 0.00 1.27 0.33 74 1010.5
20260506142816 52 45 1.0 11.0 0.00 1.27 0.33 73 1010.6
20260506142316 52 291 6.0 11.0 0.00 1.27 0.33 76 1010.7
20260506141816 52 5 8.0 11.0 0.00 1.27 0.33 75 1010.7
20260506140816 52 13 2.0 10.0 0.00 1.27 0.33 74 1010.5
20260506140315 51 329 4.0 10.0 0.00 1.27 0.33 78 1010.4
20260506135815 50 348 3.0 10.0 0.00 1.27 0.33 76 1010.3
20260506134815 50 330 6.0 7.0 0.00 1.27 0.33 77 1010.5
20260506133815 49 342 5.0 7.0 0.00 1.27 0.33 79 1010.3
20260506133315 49 329 4.0 8.0 0.00 1.27 0.33 80 1010.2
20260506132815 48 355 4.0 8.0 0.00 1.27 0.33 81 1010.1
20260506131814 47 336 5.0 9.0 0.00 1.27 0.33 83 1009.8
20260506131314 47 26 4.0 9.0 0.00 1.27 0.33 83 1009.9
20260506130814 47 285 1.0 5.0 0.00 1.27 0.33 85 1010.0
20260506130314 47 339 2.0 5.0 0.00 1.27 0.33 85 1009.9
20260506125313 47 329 0.0 6.0 0.00 1.27 0.33 85 1010.1
20260506124813 47 305 2.0 6.0 0.00 1.27 0.33 87 1010.1
20260506124313 46 338 5.0 6.0 0.00 1.27 0.33 86 1009.8
20260506123813 46 330 1.0 5.0 0.00 1.27 0.33 88 1009.7
20260506122813 46 323 4.0 5.0 0.00 1.27 0.33 88 1009.6
20260506122312 46 17 2.0 5.0 0.00 1.27 0.33 88 1009.6
20260506121812 46 14 0.0 5.0 0.00 1.27 0.33 89 1009.5
20260506121312 45 14 0.0 5.0 0.00 1.27 0.33 89 1009.4
20260506120812 45 348 2.0 6.0 0.00 1.27 0.33 90 1009.3
20260506120312 45 331 1.0 6.0 0.00 1.27 0.33 90 1009.1
20260506115812 45 360 2.0 5.0 0.00 1.27 0.33 91 1008.9
20260506115312 45 332 1.0 4.0 0.00 1.27 0.33 91 1008.8
20260506114811 45 332 2.0 5.0 0.00 1.27 0.33 91 1008.7
20260506113811 45 325 0.0 3.0 0.00 1.27 0.33 92 1008.5
20260506113312 45 323 1.0 3.0 0.00 1.27 0.33 92 1008.4
20260506112311 45 313 2.0 2.0 0.00 1.27 0.33 92 1008.2
20260506111310 45 190 0.0 3.0 0.00 1.27 0.33 92 1008.1
20260506110810 44 327 0.0 4.0 0.00 1.27 0.33 92 1008.0
20260506105310 44 328 2.0 4.0 0.00 1.27 0.33 92 1008.1
20260506104809 44 333 0.0 5.0 0.00 1.27 0.33 92 1008.1
20260506104310 44 355 1.0 5.0 0.00 1.27 0.33 92 1008.0
20260506103809 44 340 2.0 4.0 0.00 1.27 0.33 92 1007.9
20260506103309 44 5 0.0 4.0 0.00 1.27 0.33 92 1007.7
20260506102309 44 338 0.0 4.0 0.00 1.28 0.33 92 1007.7
20260506101309 44 355 3.0 4.0 0.00 1.28 0.33 92 1007.6
20260506100809 44 324 0.0 4.0 0.00 1.28 0.33 92 1007.7
20260506100309 44 348 1.0 4.0 0.00 1.28 0.33 92 1007.9
20260506095808 44 307 0.0 4.0 0.00 1.28 0.33 92 1007.7
20260506095308 44 30 0.0 4.0 0.00 1.28 0.33 92 1007.4
20260506094308 44 308 4.0 9.0 0.00 1.29 0.33 92 1007.5
20260506093807 44 350 3.0 9.0 0.00 1.29 0.33 92 1007.4
20260506093307 44 323 2.0 6.0 0.00 1.29 0.33 92 1007.6
20260506092807 44 334 3.0 6.0 0.00 1.30 0.33 92 1007.4
20260506092307 44 333 4.0 5.0 0.01 1.30 0.33 92 1007.2
20260506091807 44 360 0.0 4.0 0.01 1.31 0.33 92 1007.0
20260506091307 44 17 0.0 4.0 0.01 1.31 0.33 92 1007.1
20260506090807 44 9 0.0 3.0 0.01 1.33 0.33 92 1007.1
20260506090307 44 51 0.0 5.0 0.01 1.33 0.33 93 1006.6
20260506085807 44 34 3.0 5.0 0.01 1.35 0.33 92 1006.9
20260506085307 44 41 0.0 7.0 0.02 1.37 0.33 92 1007.1
20260506084306 44 5 4.0 4.0 0.02 1.44 0.33 92 1007.0
20260506083305 44 41 0.0 7.0 0.03 1.46 0.33 92 1006.5
20260506082805 44 104 1.0 7.0 0.03 1.48 0.33 92 1006.4
20260506082305 44 64 0.0 6.0 0.03 1.50 0.32 92 1006.2
20260506081305 44 31 4.0 6.0 0.03 1.51 0.32 91 1006.7
20260506080805 44 27 2.0 5.0 0.03 1.51 0.32 91 1007.2
20260506073303 44 9 2.0 7.0 0.01 1.49 0.30 91 1006.8
20260506072804 44 9 1.0 6.0 0.02 1.49 0.30 91 1006.7
20260506072305 44 15 2.0 6.0 0.01 1.48 0.29 91 1006.7
20260506071804 44 348 0.0 9.0 0.01 1.48 0.29 91 1006.6
20260506071303 44 333 5.0 9.0 0.02 1.48 0.29 91 1006.8
20260506070803 44 33 1.0 5.0 0.02 1.48 0.29 91 1006.6
20260506070303 44 17 2.0 7.0 0.03 1.48 0.29 91 1006.5
20260506062332 45 355 2.0 10.0 0.07 1.47 0.28 93 1007.1
20260506061831 45 9 5.0 10.0 0.08 1.47 0.28 93 1007.3
20260506061331 45 360 5.0 10.0 0.09 1.46 0.27 94 1007.4
20260506060831 46 36 0.0 10.0 0.10 1.46 0.27 94 1007.0
20260506044829 47 18 9.0 12.0 0.19 1.29 0.10 94 1007.2
20260506044328 47 5 5.0 11.0 0.20 1.27 0.08 94 1007.2
20260506043328 47 5 3.0 5.0 0.19 1.22 0.03 94 1006.7
20260506042828 47 40 0.0 5.0 0.19 1.22 0.03 94 1006.3
20260506042328 47 80 1.0 6.0 0.18 1.21 0.02 94 1006.1
20260506041828 47 78 0.0 10.0 0.18 1.21 0.02 94 1006.2
20260506041328 47 40 3.0 10.0 0.18 1.21 0.02 94 1006.2
20260506040827 47 49 4.0 10.0 0.17 1.20 0.01 94 1006.2
20260506040327 47 41 10.0 10.0 0.16 1.19 0.00 94 1006.6
20260506035827 47 64 6.0 9.0 0.14 1.17 1.17 94 1006.7